Location: Newark
(40.3500°N, 15.2333°E)
Time: 14:17:35
(UTC+00:00)

NOAA 15 - Pass Details

Date: 29 February 2020
Orbit: 797 x 813 km, 98.7° (Epoch: 08 April)

Event Time Altitude Azimuth Distance (km) Brightness Sun altitude
Rises 04:56:56 0° 37° (NE) 3,329 8.3 -7.8°
Reaches altitude 10° 05:01:10 10° 70° (ENE) 2,387 8.3 -7.0°
Maximum altitude 05:02:53 12° 89° (E) 2,277 8.7 -6.7°
Drops below altitude 10° 05:04:35 10° 108° (ESE) 2,378 8.7 -6.4°
Sets 05:08:45 0° 141° (SE) 3,297 8.5 -5.6°
